User: anonymous   Login
Location: La Pernelle
(49.6188°N, 1.2999°W)
Time: 21:47:28
(UTC+00:00)
Language:

COSMOS 2251 DEB - Orbit

View from above orbital plane
View from above orbital plane
View from above satellite
View from above satellite

Ground track
Ground track

The orbit data is extracted from the following two-line orbital elements,

1 35901U 93036AUQ 22021.94657587  .00001712  00000-0  44776-3 0  9999
2 35901  74.0330 244.2531 0014910 305.2202 117.1634 14.50071567653842
Epoch (UTC): 21 January 2022 22:43:04
Eccentricity: 0.0014910
inclination: 74.0330°
perigee height: 715 km
apogee height: 736 km
right ascension of ascending node: 244.2531°
argument of perigee: 305.2202°
revolutions per day: 14.50071567
mean anomaly at epoch: 117.1634°
orbit number at epoch: 65384

The dashed part of the orbit path shows where the satellite is in the earth's shadow,  

DLR